Shingle Point, Yukon Territory

5:21 AM PDT on June 29, 2017 (GMT -0700)
Shingle Point

Weather History for CYUA - October, 2012

Change the Weather History Date:

Monday, October 22, 2012

  Actual Average Record
Temperature  
Mean Temperature 16 °F -  
Max Temperature 17 °F 10 °F 39 °F (2005)
Min Temperature 13 °F -4 °F -11 °F (1996)
Degree Days  
Heating Degree Days 50    
Moisture  
Dew Point -    
Average Humidity    
Maximum Humidity    
Minimum Humidity    
Precipitation  
Precipitation 0.00 in 0.02 in - ()
Sea Level Pressure  
Sea Level Pressure 30.42 in    
Wind  
Wind Speed 25 mph ()    
Max Wind Speed 34 mph    
Max Gust Speed 36 mph    
Visibility 8.2 miles    
Events Snow    
Averages and records for this station are not official NWS values.
T = Trace of Precipitation, MM = Missing Value Source: Averaged Metar Reports

Daily Weather History Graph

Daily Weather History Graph

Search for Another Location

Airport or City:

Trip Planner

Search our weather history database for the weather conditions in past years. The results will help you decide how hot, cold, wet, or windy it might be!

Date:

Astronomy

Oct. 22, 2012 Rise Set
Actual Time 9:48 AM PDT 5:56 PM PDT
Civil Twilight 8:45 AM PDT 6:59 PM PDT
Nautical Twilight 7:37 AM PDT 8:07 PM PDT
Astronomical Twilight 6:29 AM PDT 9:14 PM PDT
Moon 5:14 PM PDT (10/22) No Moon Set
Length of Visible Light 10h 14m
Length of Day
8h 08m
First Quarter, 57% of the Moon is Illuminated
Oct 22
First Quarter
Oct 29
Full
Nov 6
Last Quarter
Nov 13
New
Nov 20
First Quarter

Hourly Weather History & Observations

Time (PDT) Temp. Windchill Dew Point Humidity Pressure Visibility Wind Dir Wind Speed Gust Speed Precip Events Conditions
1:00 AM 15.8 °F -3.4 °F - N/A% 30.45 in 9.0 mi South 26.5 mph 33.4 mph N/A Snow Light Snow
1:09 AM 15.8 °F -4.1 °F - N/A% 30.43 in 9.0 mi South 28.8 mph - N/A   Unknown
1:12 AM 15.8 °F -3.4 °F - N/A% 30.43 in 9.0 mi South 26.5 mph - N/A Snow Light Snow
1:55 AM 15.8 °F -3.4 °F - N/A% 30.43 in 9.0 mi South 26.5 mph 33.4 mph N/A   Unknown
2:00 AM 15 °F - - % 30.45 in 9 mi South 27.6 mph - -  
2:00 AM 15.8 °F -4.1 °F - N/A% 30.45 in 9.0 mi South 28.8 mph - N/A   Unknown
2:12 AM 15.8 °F -3.7 °F - N/A% 30.42 in 9.0 mi South 27.6 mph - N/A Snow Light Snow
2:41 AM 15.8 °F -3.4 °F - N/A% 30.41 in 9.0 mi SSW 26.5 mph 33.4 mph N/A   Unknown
3:00 AM 15.8 °F -3.4 °F - N/A% 30.43 in 9.0 mi South 26.5 mph - N/A   Unknown
3:16 AM 15.8 °F -3.4 °F - N/A% 30.41 in 9.0 mi SSW 26.5 mph - N/A Snow Light Snow
4:00 AM 15.8 °F -4.7 °F - N/A% 30.42 in 8.0 mi SSW 31.1 mph - N/A Snow Light Snow
4:17 AM 15.8 °F -2.7 °F - N/A% 30.40 in 9.0 mi South 24.2 mph - N/A   Unknown
4:57 AM 15.8 °F -3.4 °F - N/A% 30.40 in 9.0 mi South 26.5 mph - N/A Snow Light Snow
5:00 AM 16 °F - - % 30.42 in 9 mi South 25.3 mph - -  
5:00 AM 15.8 °F -3.1 °F - N/A% 30.42 in 9.0 mi South 25.3 mph - N/A Snow Light Snow
5:13 AM 15.8 °F -3.1 °F - N/A% 30.40 in 9.0 mi South 25.3 mph - N/A   Unknown
6:00 AM 15.8 °F -3.1 °F - N/A% 30.42 in 9.0 mi South 25.3 mph - N/A   Unknown
6:16 AM 15.8 °F -4.4 °F - N/A% 30.39 in 9.0 mi South 29.9 mph - N/A Snow Light Snow
6:35 AM 14.0 °F -5.8 °F - N/A% 30.39 in 9.0 mi South 26.5 mph - N/A   Unknown
7:00 AM 14.0 °F -4.7 °F - N/A% 30.43 in 9.0 mi South 23.0 mph - N/A   Unknown
8:00 AM 14 °F - - % 30.43 in 9 mi South 20.7 mph - -  
8:00 AM 14.0 °F -3.9 °F - N/A% 30.43 in 9.0 mi South 20.7 mph - N/A   Unknown
8:47 AM 14.0 °F -5.5 °F - N/A% 30.40 in 9.0 mi South 25.3 mph - N/A Snow Light Snow
8:57 AM 14.0 °F -5.8 °F - N/A% 30.40 in 9.0 mi South 26.5 mph - N/A   Unknown
9:00 AM 14.0 °F -5.5 °F - N/A% 30.42 in 9.0 mi South 25.3 mph - N/A   Unknown
9:45 AM 14.0 °F -7.7 °F - N/A% 30.38 in 3.5 mi SSW 33.4 mph - N/A Snow Light Snow
9:47 AM 14.0 °F -8.0 °F - N/A% 30.38 in 3.0 mi SSW 34.5 mph - N/A Snow Light Snow
9:59 AM 14.0 °F -7.7 °F - N/A% 30.39 in 3.0 mi SSW 33.4 mph - N/A Snow Light Snow
10:00 AM 14.0 °F -7.7 °F - N/A% 30.41 in 3.0 mi South 33.4 mph - N/A Snow Light Snow
10:03 AM 14.0 °F -7.7 °F - N/A% 30.38 in 3.0 mi South 33.4 mph - N/A Snow Light Snow
10:29 AM 14.0 °F -7.1 °F - N/A% 30.39 in 4.0 mi SSW 31.1 mph - N/A Snow Light Snow
10:49 AM 14.0 °F -7.4 °F - N/A% 30.39 in 4.0 mi SSW 32.2 mph - N/A   Unknown
11:00 AM 14 °F - - % 30.41 in 5 mi SSW 29.9 mph - -  
11:00 AM 14.0 °F -6.5 °F - N/A% 30.41 in 5.0 mi South 28.8 mph 35.7 mph N/A   Unknown
12:00 PM 14.0 °F -5.8 °F - N/A% 30.44 in 9.0 mi South 26.5 mph - N/A   Unknown
12:13 PM 14.0 °F -5.8 °F - N/A% 30.41 in 9.0 mi South 26.5 mph - N/A Snow Light Snow
1:00 PM 15.8 °F -2.3 °F - N/A% 30.44 in 9.0 mi SSW 23.0 mph - N/A Snow Light Snow
1:20 PM 15.8 °F -4.4 °F - N/A% 30.41 in 9.0 mi SSW 29.9 mph - N/A   Unknown
2:00 PM 16 °F - - % 30.43 in 9 mi SSW 26.5 mph - -  
2:00 PM 15.8 °F -4.1 °F - N/A% 30.43 in 9.0 mi SSW 28.8 mph - N/A   Unknown
2:58 PM 17.6 °F -1.9 °F - N/A% 30.41 in 9.0 mi SSW 29.9 mph - N/A Snow Light Snow
3:00 PM 17.6 °F -1.9 °F - N/A% 30.43 in 9.0 mi SSW 29.9 mph - N/A Snow Light Snow
3:41 PM 17.6 °F -0.6 °F - N/A% 30.41 in 9.0 mi SSW 25.3 mph - N/A   Unknown
3:57 PM 17.6 °F -2.2 °F - N/A% 30.41 in 9.0 mi SSW 31.1 mph - N/A Snow Light Snow
4:00 PM 17.6 °F -1.9 °F - N/A% 30.43 in 9.0 mi SSW 29.9 mph - N/A Snow Light Snow
5:00 PM 16 °F - - % 30.44 in 9 mi SSW 26.5 mph - -  
5:00 PM 15.8 °F -3.1 °F - N/A% 30.44 in 9.0 mi SSW 25.3 mph - N/A Snow Light Snow
5:02 PM 15.8 °F - - N/A% 30.42 in 9.0 mi North - - N/A   Unknown
5:25 PM 15.8 °F -2.7 °F - N/A% 30.42 in 9.0 mi SSW 24.2 mph - N/A Snow Light Snow
5:44 PM 15.8 °F -2.3 °F - N/A% 30.42 in 9.0 mi SSW 23.0 mph - N/A   Unknown
5:45 PM 15.8 °F -2.3 °F - N/A% 30.42 in 9.0 mi SSW 23.0 mph - N/A Snow Light Snow
5:46 PM 15.8 °F -2.3 °F - N/A% 30.42 in 9.0 mi SSW 23.0 mph - N/A   Unknown
5:51 PM 15.8 °F -2.3 °F - N/A% 30.42 in 9.0 mi SSW 23.0 mph - N/A Snow Light Snow
6:00 PM 15.8 °F -2.7 °F - N/A% 30.44 in 9.0 mi SSW 24.2 mph - N/A   Unknown
6:16 PM 15.8 °F -3.4 °F - N/A% 30.42 in 9.0 mi SSW 26.5 mph - N/A Snow Light Snow
7:00 PM 15.8 °F -2.7 °F - N/A% 30.45 in 9.0 mi SSW 24.2 mph - N/A Snow Light Snow
7:11 PM 15.8 °F -2.3 °F - N/A% 30.43 in 9.0 mi SSW 23.0 mph - N/A   Unknown
8:00 PM 14 °F - - % 30.46 in 9 mi SSW 20.7 mph - -  
8:00 PM 14.0 °F -3.0 °F - N/A% 30.46 in 9.0 mi SSW 18.4 mph - N/A   Unknown
8:51 PM 14.0 °F -4.7 °F - N/A% 30.44 in 9.0 mi SSW 23.0 mph - N/A Snow Light Snow
9:00 PM 14.0 °F -4.3 °F - N/A% 30.47 in 9.0 mi SSW 21.9 mph - N/A Snow Light Snow
9:12 PM 14.0 °F -2.5 °F - N/A% 30.45 in 9.0 mi South 17.3 mph - N/A   Unknown
10:00 PM 14.0 °F 0.5 °F - N/A% 30.49 in 9.0 mi SSW 11.5 mph - N/A   Unknown
11:00 PM 13 °F - - % 30.49 in 9 mi SSW 20.7 mph - -